[[{"header":{"parameterUnit":"m.s-1","parameterCategory":1,"la1":30.2991,"la2":30.254,"lo1":-89.0895,"lo2":-89.0444,"dy":0.0017,"dx":0.0017,"nx":28,"ny":28,"refTime":"2024-04-29T21:00:00:Z","depth":0,"parameterNumber":2,"parameterNumberName":"U-component_of_WINDS"},"data":[0,0,0,0,0,0,0,0,0,0,0,0,0,0,0,0,0,0,0,0,0,0,0,0,0,0,0,0,0,0,0,0,0,0,0,0,0,0,0,0,0,0,0,0,0,0,0,0,0,0,0,0,0,0,0,0,0,0,-2.1245,-2.1248,0,-2.149,-2.1492,-2.1495,-2.1595,-2.1594,-2.1594,-2.1593,-2.1848,-2.1855,-2.1862,0,0,0,0,0,0,0,0,0,0,0,0,0,-2.0869,-2.0875,-2.1245,-2.1248,-2.1251,-2.1489,-2.1493,-2.1496,-2.1595,-2.1594,-2.1593,-2.1593,-2.1845,-2.1854,-2.1863,0,0,0,0,0,0,0,0,0,0,0,0,0,-2.1064,-2.0877,-2.1244,-2.1329,-2.1339,-2.1488,-2.1493,-2.1497,-2.1595,-2.1594,-2.1593,-2.1593,-2.1842,-2.1853,-2.1864,-2.1948,0,0,-2.1897,-2.1902,0,0,0,0,0,0,0,0,-2.1053,-2.1078,-2.1313,-2.1323,-2.1335,-2.1511,-2.1453,-2.1648,-2.1595,-2.1498,-2.1593,-2.1592,-2.1736,-2.1756,-2.1804,-2.196,-2.1971,-2.1898,-2.1905,-2.191,-2.1913,0,0,0,0,0,0,0,-2.104,-2.1068,-2.1342,-2.1317,-2.133,-2.1356,-2.1383,-2.1491,-2.1619,-2.1506,-2.1514,-2.1542,-2.1742,-2.1793,-2.1811,-2.1975,-2.1898,-2.1908,-2.1914,-2.1919,-2.2216,-2.2217,0,0,0,0,0,0,-2.1011,-2.1056,-2.1334,-2.1349,-2.1189,-2.1364,-2.1394,-2.1455,-2.1618,-2.1642,-2.1542,-2.1545,-2.1775,-2.1798,-2.182,-2.1931,-2.1909,-2.192,-2.1926,-2.2214,-2.2216,-2.2217,0,0,0,0,0,0,-2.1003,-2.1035,-2.1324,-2.1205,-2.1244,-2.1371,-2.1439,-2.146,-2.1511,-2.1645,-2.1669,-2.157,-2.1775,-2.1805,-2.1916,-2.1941,-2.1925,-2.1935,-2.2213,-2.2215,-2.2217,-2.2152,0,0,0,0,0,0,-2.0992,-2.1031,-2.1063,-2.1205,-2.125,-2.1414,-2.1441,-2.1466,-2.153,-2.1536,-2.1678,-2.17,-2.1777,-2.1899,-2.1927,-2.1956,-2.1943,-2.2211,-2.2214,-2.2216,-2.2153,-2.2152,-2.2151,0,0,0,0,0,-2.0978,-2.1036,-2.1065,-2.1098,-2.1292,-2.1415,-2.1441,-2.1526,-2.1531,-2.1565,-2.1652,-2.1696,-2.1934,-2.191,-2.1942,-2.1974,-2.221,-2.2213,-2.2216,-2.2153,-2.2152,-2.2151,0,0,0,0,0,0,-2.0895,-2.1056,-2.1089,-2.1195,-2.129,-2.1432,-2.1477,-2.1522,-2.162,-2.1622,-2.1725,-2.1756,-2.1859,-2.1929,-2.1898,-2.2066,-2.2076,-2.2085,-2.2017,-2.2017,-2.2016,-2.1997,-2.1952,0,0,0,0,0,-2.0889,-2.0974,-2.1111,-2.1191,-2.1237,-2.1349,-2.1405,-2.1463,-2.1567,-2.1608,-2.1703,-2.1803,-2.1901,-2.1963,-2.206,-2.2164,-2.2197,-2.2202,-2.2201,-2.22,-2.2207,-2.2269,-2.2273,-2.2227,-2.2227,-2.2227,0,0,-2.0878,-2.0976,-2.1024,-2.1177,-2.1258,-2.1345,-2.1382,-2.1473,-2.1539,-2.1623,-2.1733,-2.1806,-2.1925,-2.2033,-2.2086,-2.2094,-2.2227,-2.2204,-2.2202,-2.221,-2.2272,-2.2277,-2.228,-2.2229,-2.2229,-2.2229,0,0,-2.0901,-2.0984,-2.106,-2.114,-2.1262,-2.1336,-2.1354,-2.149,-2.1541,-2.1654,-2.1719,-2.18,-2.1966,-2.2049,-2.2112,-2.2169,-2.2214,-2.2198,-2.2194,-2.2253,-2.2256,-2.226,-2.2281,-2.2288,-2.2205,-2.2205,-2.2205,0,-2.0872,-2.1004,-2.1094,-2.1181,-2.1247,-2.1326,-2.1405,-2.148,-2.1627,-2.1672,-2.1679,-2.189,-2.1976,-2.2105,-2.2119,-2.2167,-2.2193,-2.2182,-2.2248,-2.2253,-2.2258,-2.2279,-2.2287,-2.2202,-2.2202,-2.2203,-2.2203,0,-2.0963,-2.1054,-2.1101,-2.1241,-2.1313,-2.1395,-2.1499,-2.1561,-2.1613,-2.1687,-2.1802,-2.1908,-2.2029,-2.2064,-2.2116,-2.2202,-2.2203,-2.2228,-2.2239,-2.2258,-2.228,-2.2289,-2.2198,-2.2199,-2.22,-2.22,0,0,-2.094,-2.1129,-2.1145,-2.121,-2.1351,-2.1424,-2.1511,-2.1628,-2.168,-2.178,-2.1857,-2.1997,-2.2021,-2.2093,-2.2155,-2.2207,-2.2247,-2.2226,-2.2231,-2.2227,-2.235,-2.233,-2.2338,-2.2278,-2.228,-2.2282,-2.234,0,-2.0983,-2.1141,-2.1224,-2.1348,-2.1434,-2.1511,-2.1588,-2.1684,-2.1756,-2.1841,-2.1922,-2.2019,-2.2043,-2.2088,-2.2143,-2.223,-2.2273,-2.2227,-2.2352,-2.2356,-2.2319,-2.2349,-2.2329,-2.2379,-2.2349,-2.2351,-2.2352,0,-2.1054,-2.1152,-2.1283,-2.1415,-2.1455,-2.1521,-2.1637,-2.1717,-2.1828,-2.1877,-2.1958,-2.202,-2.2117,-2.2122,-2.2259,-2.2226,-2.2282,-2.2333,-2.2338,-2.2352,-2.2354,-2.2365,-2.2397,-2.2404,-2.2366,-2.2365,-2.2364,0,-2.1025,-2.119,-2.129,-2.1343,-2.15,-2.1545,-2.1613,-2.1723,-2.1789,-2.189,-2.1934,-2.2046,-2.2107,-2.2193,-2.2284,-2.2279,-2.2413,-2.2424,-2.2458,-2.2455,-2.2482,-2.2479,-2.2522,-2.2518,-2.2518,-2.2517,-2.2517,0,-2.1064,-2.1141,-2.1279,-2.134,-2.143,-2.1527,-2.1614,-2.1688,-2.1786,-2.1865,-2.194,-2.2012,-2.2128,-2.2216,-2.2289,-2.2392,-2.2419,-2.2463,-2.2481,-2.2456,-2.245,-2.2494,-2.2493,-2.252,-2.2519,-2.2519,-2.2518,0,-2.1046,-2.1141,-2.1256,-2.1395,-2.1432,-2.1492,-2.1612,-2.1676,-2.1752,-2.1852,-2.1881,-2.2001,-2.2109,-2.2208,-2.2352,-2.2401,-2.2506,-2.2529,-2.2467,-2.2477,-2.2505,-2.2501,-2.2578,-2.2594,-2.2577,-2.2577,-2.2577,0,-2.1065,-2.1126,-2.1272,-2.1329,-2.1395,-2.1487,-2.1554,-2.1653,-2.172,-2.1852,-2.1901,-2.2014,-2.2109,-2.2278,-2.238,-2.2491,-2.2518,-2.2537,-2.2535,-2.2508,-2.2519,-2.2514,-2.2522,-2.2536,-2.2535,-2.2535,-2.2535,0,-2.1088,-2.1133,-2.1225,-2.1335,-2.1413,-2.1505,-2.1599,-2.1643,-2.1759,-2.1832,-2.1942,-2.2016,-2.2163,-2.2275,-2.2397,-2.247,-2.2523,-2.2535,-2.2549,-2.2524,-2.2486,-2.2507,-2.2464,-2.2533,-2.2533,-2.2533,-2.2533,-2.2533,-2.1091,-2.1149,-2.1261,-2.1362,-2.1443,-2.153,-2.1597,-2.1682,-2.1775,-2.1901,-2.1954,-2.2066,-2.2179,-2.2349,-2.2421,-2.2512,-2.2523,-2.2542,-2.2548,-2.2551,-2.2546,-2.2471,-2.2535,-2.2535,-2.2535,-2.2535,-2.2535,0,-2.1118,-2.1194,-2.1286,-2.1416,-2.1496,-2.1537,-2.1644,-2.1709,-2.1806,-2.1906,-2.1998,-2.2126,-2.2236,-2.2346,-2.2462,-2.2514,-2.2541,-2.2541,-2.2538,-2.2555,-2.2529,-2.2506,-2.2517,-2.2517,-2.2517,-2.2517,-2.2517,-2.2517,-2.1142,-2.1244,-2.1301,-2.1445,-2.1521,-2.163,-2.1688,-2.1769,-2.1849,-2.1988,-2.2078,-2.2149,-2.2254,-2.2379,-2.2482,-2.2512,-2.2551,-2.2545,-2.2581,-2.2556,-2.2556,-2.2557,-2.2535,-2.2552,-2.2552,-2.2599,-2.26,-2.26]},{"header":{"parameterUnit":"m.s-1","parameterCategory":1,"la1":30.2991,"la2":30.254,"lo1":-89.0895,"lo2":-89.0444,"dy":0.0017,"dx":0.0017,"nx":28,"ny":28,"refTime":"2024-04-29T21:00:00:Z","depth":0,"parameterNumber":3,"parameterNumberName":"V-component_of_WINDS"},"data":[0,0,0,0,0,0,0,0,0,0,0,0,0,0,0,0,0,0,0,0,0,0,0,0,0,0,0,0,0,0,0,0,0,0,0,0,0,0,0,0,0,0,0,0,0,0,0,0,0,0,0,0,0,0,0,0,0,0,4.8706,4.8707,0,4.8776,4.8777,4.8778,4.8796,4.8796,4.8795,4.8795,4.8859,4.8861,4.8864,0,0,0,0,0,0,0,0,0,0,0,0,0,4.8581,4.8583,4.8706,4.8707,4.8708,4.8776,4.8777,4.8778,4.8796,4.8795,4.8795,4.8795,4.8859,4.8861,4.8864,0,0,0,0,0,0,0,0,0,0,0,0,0,4.8642,4.8584,4.8706,4.8725,4.8728,4.8776,4.8777,4.8778,4.8796,4.8795,4.8795,4.8794,4.8858,4.8861,4.8864,4.8896,0,0,4.8874,4.8875,0,0,0,0,0,0,0,0,4.8638,4.8646,4.8721,4.8724,4.8727,4.8777,4.8757,4.8818,4.8796,4.877,4.8795,4.8794,4.8832,4.8837,4.8852,4.8899,4.8902,4.8874,4.8876,4.8877,4.8878,0,0,0,0,0,0,0,4.8634,4.8643,4.8734,4.8722,4.8726,4.8728,4.8736,4.8769,4.8803,4.8772,4.8774,4.8782,4.8833,4.8848,4.8853,4.8903,4.8874,4.8877,4.8879,4.888,4.8982,4.8983,0,0,0,0,0,0,4.8627,4.864,4.8731,4.8736,4.868,4.8731,4.874,4.8761,4.8803,4.8809,4.8783,4.8783,4.8843,4.8849,4.8855,4.8897,4.8877,4.888,4.8882,4.8981,4.8982,4.8983,0,0,0,0,0,0,4.8625,4.8635,4.8728,4.8688,4.87,4.8734,4.8758,4.8763,4.8778,4.8811,4.8817,4.8792,4.8843,4.8851,4.8887,4.89,4.8882,4.8885,4.898,4.8981,4.8982,4.898,0,0,0,0,0,0,4.8621,4.8634,4.8648,4.8688,4.8702,4.876,4.8759,4.8765,4.8785,4.8785,4.8822,4.8827,4.8843,4.8882,4.889,4.8904,4.8887,4.8979,4.8981,4.8982,4.8979,4.8981,4.8982,0,0,0,0,0,4.8617,4.8642,4.8649,4.866,4.8721,4.8761,4.8769,4.8789,4.8786,4.8799,4.882,4.8826,4.8897,4.8885,4.8895,4.8909,4.8978,4.898,4.8982,4.8978,4.898,4.8982,0,0,0,0,0,0,4.8599,4.8648,4.8655,4.8696,4.8725,4.8764,4.8781,4.8791,4.8819,4.8818,4.884,4.8848,4.8883,4.8899,4.8886,4.8943,4.8937,4.8941,4.8931,4.8934,4.8935,4.8931,4.889,0,0,0,0,0,4.8601,4.8632,4.8671,4.8703,4.8717,4.8747,4.8765,4.8779,4.8809,4.882,4.8844,4.887,4.8899,4.8917,4.8945,4.8981,4.899,4.8996,4.8998,4.8999,4.9002,4.9023,4.9027,4.8989,4.8989,4.8989,0,0,4.8602,4.8633,4.8651,4.87,4.8724,4.8754,4.8757,4.8788,4.881,4.8824,4.886,4.8879,4.891,4.8947,4.8964,4.8961,4.9014,4.9001,4.9002,4.9004,4.9026,4.9029,4.9032,4.899,4.899,4.899,0,0,4.8622,4.8648,4.8679,4.8703,4.8741,4.8761,4.8768,4.8807,4.8821,4.8859,4.887,4.8896,4.8944,4.8967,4.8984,4.9015,4.9021,4.9023,4.9032,4.9053,4.9056,4.9059,4.907,4.9074,4.9026,4.9026,4.9026,0,4.8619,4.8667,4.8692,4.8724,4.8745,4.8763,4.8793,4.8815,4.8858,4.8872,4.887,4.8933,4.8955,4.8997,4.9005,4.9019,4.9027,4.9019,4.9054,4.9057,4.906,4.9071,4.9075,4.9026,4.9026,4.9026,4.9026,0,4.8662,4.8695,4.8715,4.8761,4.8784,4.8814,4.8843,4.8863,4.8875,4.8895,4.8933,4.8961,4.8996,4.9007,4.9017,4.9051,4.9049,4.905,4.9044,4.9063,4.9074,4.9079,4.9026,4.9026,4.9026,4.9026,0,0,4.8671,4.8733,4.8739,4.8761,4.8805,4.883,4.8861,4.8898,4.8916,4.8945,4.8972,4.9014,4.9016,4.9036,4.9049,4.9068,4.9092,4.9067,4.9068,4.9071,4.9132,4.9131,4.9136,4.9096,4.9097,4.9098,4.9129,0,4.8696,4.8756,4.8781,4.8828,4.8859,4.8877,4.8905,4.8933,4.8953,4.8981,4.9001,4.9032,4.9032,4.9044,4.9063,4.9085,4.9104,4.9083,4.912,4.9121,4.9112,4.9141,4.9141,4.9169,4.9134,4.9134,4.9135,0,4.8734,4.8768,4.882,4.8862,4.8876,4.8901,4.8938,4.8964,4.8997,4.901,4.9034,4.9047,4.908,4.9073,4.9117,4.9102,4.9119,4.9132,4.9133,4.9138,4.9129,4.9147,4.9178,4.9183,4.9142,4.9141,4.9141,0,4.8736,4.8795,4.8834,4.8852,4.8902,4.8919,4.894,4.8973,4.8994,4.9026,4.904,4.9073,4.9091,4.9116,4.9138,4.913,4.918,4.9175,4.9191,4.9191,4.9201,4.92,4.9236,4.9211,4.9211,4.9211,4.9211,0,4.8763,4.8793,4.8837,4.886,4.8896,4.8923,4.8956,4.8978,4.9008,4.9035,4.9051,4.9076,4.9103,4.9131,4.9147,4.9182,4.919,4.9201,4.9205,4.92,4.9198,4.9211,4.9209,4.9212,4.9212,4.9211,4.9211,0,4.8771,4.8801,4.8845,4.8891,4.8903,4.8927,4.8964,4.8988,4.9009,4.9044,4.9053,4.9086,4.912,4.9144,4.9187,4.9198,4.9236,4.9239,4.9226,4.9228,4.9243,4.9242,4.9289,4.9296,4.9265,4.9266,4.9266,0,4.8786,4.8811,4.886,4.8882,4.8904,4.8937,4.896,4.8988,4.9011,4.9052,4.907,4.9106,4.9136,4.9189,4.9216,4.9249,4.9253,4.9268,4.9258,4.9253,4.9254,4.9253,4.9256,4.9269,4.9269,4.9269,4.9269,0,4.881,4.8824,4.8858,4.8899,4.8927,4.8958,4.899,4.9006,4.9039,4.9063,4.91,4.9124,4.917,4.9205,4.9241,4.9261,4.927,4.9272,4.9278,4.9273,4.9265,4.9271,4.923,4.9271,4.9271,4.9271,4.9271,4.9271,4.8822,4.8846,4.8886,4.8924,4.8952,4.8982,4.9007,4.9033,4.9065,4.9107,4.912,4.9158,4.9192,4.9242,4.9262,4.9291,4.929,4.9298,4.93,4.9302,4.9302,4.926,4.9297,4.9297,4.9297,4.9297,4.9297,0,4.8848,4.8875,4.891,4.8956,4.8986,4.8996,4.9032,4.9055,4.909,4.9122,4.9153,4.9195,4.923,4.926,4.9296,4.9314,4.9319,4.9322,4.9321,4.9326,4.9301,4.9293,4.9317,4.9317,4.9317,4.9317,4.9317,4.9317,4.8864,4.8906,4.8926,4.8981,4.9007,4.9048,4.9068,4.9095,4.9121,4.9169,4.92,4.922,4.9251,4.929,4.9322,4.933,4.9342,4.9344,4.9353,4.9329,4.9327,4.9325,4.9318,4.9347,4.9347,4.9376,4.9376,4.9376]}]]